Miscellaneous Local Product
Issued by NWS North Platte, NE

Home | Current Version | Previous Version | Text Only | Print | Product List | Glossary On
Versions: 1 2 3 4 5 6 7 8 9 10 11 12 13 14 15 16 17 18 19 20 21 22 23 24 25 26 27 28 29 30 31 32 33 34 35 36 37 38 39 40 41 42 43 44 45 46 47 48 49 50
000
AXUS43 KLBF 031310
MISLBF


WESTERN AND NORTH CENTRAL NEBRASKA HOURLY WEATHER ROUNDUP
NATIONAL WEATHER SERVICE NORTH PLATTE NE
800 AM CDT SUN MAY 03 2015

***STATIONS NOT REPORTING VARIABLES SUCH AS SKY/WEATHER OR
PRESSURE ARE PROVIDED BY THE NEBRASKA DEPARTMENT OF
ROADS...RAWS...AND APRS NETWORKS...AND ARE NOT UNDER
NATIONAL WEATHER SERVICE QUALITY CONTROL***

...OBSERVATIONS IN AND NEAR THE EASTERN PANHANDLE OF NEBRASKA...

CITY           SKY/WX    TMP DP  RH WIND       PRES   REMARKS
PINE RIDGE     MOSUNNY   48  36  63 VRB3      29.86R
CHADRON        MOSUNNY   47  39  74 N5        29.88R
ALLIANCE       PTSUNNY   48  42  80 W8        29.82R
SIDNEY         MOSUNNY   52  42  69 NW8       29.87R
WHITECLAY        N/A     44  36  71 N9          N/A
CRESCENT LAKE    N/A     54  43  66 NW7         N/A
BIG SPRINGS      N/A     52  47  82 SW12        N/A
$$

...OBSERVATIONS IN NORTH CENTRAL NEBRASKA...

CITY           SKY/WX    TMP DP  RH WIND       PRES   REMARKS
VALENTINE      PTSUNNY   52  42  69 NW9       29.76R
THEDFORD       MOSUNNY   61  46  57 W7        29.76R
AINSWORTH      MOSUNNY   55  44  66 W8        29.74R
O`NEILL        MOSUNNY   57  55  94 S7        29.71F
ORD            MOSUNNY   54  49  83 CALM      29.71R
BROKEN BOW     PTSUNNY   65  44  46 VRB5      29.74R
BROWNLEE         N/A     60  39  46 W3          N/A
VALENTINE NWR    N/A     54  39  57 CALM        N/A
SPRINGVIEW       N/A     51  47  85 SW3         N/A
HALSEY           N/A     58  43  57 W3          N/A
BREWSTER         N/A     65  49  55 W5          N/A
ROSE             N/A     59  46  63 CALM        N/A
NEWPORT          N/A     53  49  89 W5          N/A
SARGENT          N/A     53  47  80 CALM        N/A
COMSTOCK         N/A     66  47  50 W7          N/A
EWING            N/A     60  56  87 S6          N/A
$$

...OBSERVATIONS IN SOUTHWEST NEBRASKA AND FAR NORTHEAST COLORADO...

CITY           SKY/WX    TMP DP  RH WIND       PRES   REMARKS
WRAY           FAIR      52  46  79 SW3       29.85R
IMPERIAL       SUNNY     56  44  64 W12       29.81R
OGALLALA       MOSUNNY   51  45  79 W10       29.81R
NORTH PLATTE   SUNNY     52  48  86 NW6       29.78R
MCCOOK         SUNNY     55  46  71 S9        29.81R
LEXINGTON      MOSUNNY   55  49  81 CALM      29.76R
PAXTON           N/A     54  48  80 W5          N/A
SUTHERLAND       N/A     51  46  84 W7          N/A
GOTHENBURG       N/A     58  43  58 NW3         N/A
CALLAWAY         N/A     62  48  60 NW9         N/A
$$

...NORTH PLATTE AREA...

CITY           SKY/WX    TMP DP  RH WIND       PRES   REMARKS
AIRPORT        SUNNY     52  48  86 NW6       29.78R
DOWNTOWN         N/A     57  46  66 CALM        N/A
$$

...SOME WEATHER OBSERVATIONS FROM AROUND THE REGION...

CITY           SKY/WX    TMP DP  RH WIND       PRES   REMARKS
DENVER         PTSUNNY   53  38  56 SW13      29.93R
LARAMIE        SUNNY     44  31  60 N9        30.01R
CHEYENNE       SUNNY     53  33  46 W17       29.95R
SCOTTSBLUFF    SUNNY     50  42  74 N6        29.86R
RAPID CITY     MOSUNNY   51  35  54 N22G30    29.92R
PIERRE         MOSUNNY   55  37  50 N21G29    29.78R
WINNER         FAIR      52  41  66 W7        29.74R
SIOUX FALLS    PTSUNNY   60  55  83 N5        29.74R
OMAHA          PTSUNNY   63  56  78 S16       29.75R
GRAND ISLAND   MOSUNNY   59  53  80 SE6       29.74S
KANSAS CITY    CLOUDY    64  55  72 S14       29.86R
WICHITA        PTSUNNY   65  54  67 S18       29.85R
HAYS           MOSUNNY   63  48  59 W3        29.81R
LIBERAL        PTSUNNY   59  45  58 W6        29.87R
GOODLAND       SUNNY     56  45  66 W10       29.86R
$$



USA.gov is the U.S. government's official web portal to all federal, state and local government web resources and services.